• Em Portugal
  • Lista de países
  • Para 7 dias
  • Temperatura da água
  • Mapas de satélite
  • Mapa do tempo
  • Widgets de tempo
  • user-avatar
    Iniciar Sessão

    Previsão horária em Silkhet

    Hoje, 19 Setembro, Terça-feira

    Tempo Temperatura Precipitação Vento Pressão Humidade
    00:00 +29°C° 0 mm 1 m/s 752 mmHg 87%
    01:00 +29°C° 0,1 mm 1 m/s 752 mmHg 87%
    02:00 +28°C° 0,1 mm 1 m/s 751 mmHg 88%
    03:00 +28°C° 0,1 mm 1 m/s 751 mmHg 88%
    04:00 +28°C° 0,1 mm 1 m/s 751 mmHg 89%
    05:00 +28°C° 0,1 mm 1 m/s 752 mmHg 89%
    06:00 +28°C° 0 mm 2 m/s 752 mmHg 91%
    07:00 +28°C° 0,2 mm 2 m/s 752 mmHg 88%
    08:00 +29°C° 0,2 mm 2 m/s 752 mmHg 86%
    09:00 +29°C° 0,2 mm 2 m/s 752 mmHg 84%
    10:00 +31°C° 0,6 mm 3 m/s 752 mmHg 79%
    11:00 +33°C° 0,6 mm 3 m/s 752 mmHg 74%
    12:00 +36°C° 0 mm 2 m/s 751 mmHg 61%
    13:00 +36°C° 0,7 mm 2 m/s 751 mmHg 62%
    14:00 +36°C° 0,7 mm 3 m/s 750 mmHg 63%
    15:00 +36°C° 0,7 mm 3 m/s 750 mmHg 64%
    16:00 +34°C° 2,3 mm 3 m/s 750 mmHg 71%
    17:00 +31°C° 2,3 mm 3 m/s 750 mmHg 78%
    18:00 +30°C° 2,3 mm 3 m/s 751 mmHg 84%
    19:00 +29°C° 0,8 mm 3 m/s 751 mmHg 86%
    20:00 +29°C° 0,8 mm 3 m/s 752 mmHg 88%
    21:00 +28°C° 0,8 mm 3 m/s 753 mmHg 90%
    22:00 +28°C° 0,9 mm 3 m/s 753 mmHg 90%
    23:00 +28°C° 0,9 mm 2 m/s 753 mmHg 91%

    Amanhã, 20 Setembro, Quarta-feira

    Tempo Temperatura Precipitação Vento Pressão Humidade
    00:00 +28°C° 0,9 mm 2 m/s 753 mmHg 92%
    01:00 +27°C° 1,1 mm 2 m/s 753 mmHg 92%
    02:00 +27°C° 1,1 mm 2 m/s 752 mmHg 92%
    03:00 +27°C° 1,1 mm 2 m/s 752 mmHg 93%
    04:00 +27°C° 0,9 mm 2 m/s 752 mmHg 93%
    05:00 +27°C° 0,9 mm 2 m/s 753 mmHg 92%
    06:00 +27°C° 0,9 mm 2 m/s 753 mmHg 92%
    07:00 +28°C° 0,7 mm 3 m/s 753 mmHg 90%
    08:00 +28°C° 0,7 mm 3 m/s 754 mmHg 88%
    09:00 +29°C° 0,7 mm 3 m/s 754 mmHg 86%
    10:00 +30°C° 1,4 mm 3 m/s 754 mmHg 82%
    11:00 +31°C° 1,4 mm 3 m/s 754 mmHg 79%
    12:00 +33°C° 1,4 mm 3 m/s 753 mmHg 76%
    13:00 +33°C° 2,4 mm 3 m/s 753 mmHg 78%
    14:00 +31°C° 2,4 mm 3 m/s 752 mmHg 81%
    15:00 +31°C° 2,4 mm 2 m/s 752 mmHg 84%
    16:00 +30°C° 0,8 mm 2 m/s 752 mmHg 86%
    17:00 +29°C° 0,8 mm 2 m/s 752 mmHg 88%
    18:00 +29°C° 0,8 mm 2 m/s 752 mmHg 90%
    19:00 +28°C° 0,9 mm 2 m/s 753 mmHg 90%
    20:00 +28°C° 0,9 mm 2 m/s 754 mmHg 90%
    21:00 +28°C° 0,9 mm 2 m/s 754 mmHg 91%
    22:00 +28°C° 0,3 mm 2 m/s 754 mmHg 91%
    23:00 +27°C° 0,3 mm 2 m/s 754 mmHg 91%

    Depois de amanhã, 21 Setembro, Quinta-feira

    Tempo Temperatura Precipitação Vento Pressão Humidade
    00:00 +27°C° 0,3 mm 2 m/s 754 mmHg 91%
    01:00 +27°C° 0,2 mm 2 m/s 754 mmHg 92%
    02:00 +27°C° 0,2 mm 2 m/s 753 mmHg 92%
    03:00 +27°C° 0,2 mm 2 m/s 753 mmHg 93%
    04:00 +26°C° 0,1 mm 2 m/s 753 mmHg 93%
    05:00 +26°C° 0,1 mm 2 m/s 754 mmHg 93%
    06:00 +26°C° 0,1 mm 2 m/s 754 mmHg 93%
    07:00 +28°C° 0,1 mm 2 m/s 754 mmHg 88%
    08:00 +29°C° 0,1 mm 3 m/s 755 mmHg 83%
    09:00 +31°C° 0,1 mm 3 m/s 755 mmHg 78%
    10:00 +32°C° 0,5 mm 2 m/s 755 mmHg 74%
    11:00 +34°C° 0,5 mm 2 m/s 754 mmHg 70%
    12:00 +35°C° 0,5 mm 2 m/s 753 mmHg 66%
    13:00 +35°C° 0,4 mm 2 m/s 753 mmHg 66%
    14:00 +35°C° 0,4 mm 2 m/s 752 mmHg 66%
    15:00 +35°C° 0,4 mm 2 m/s 751 mmHg 65%
    16:00 +34°C° 0,2 mm 2 m/s 751 mmHg 71%
    17:00 +32°C° 0,2 mm 1 m/s 751 mmHg 76%
    18:00 +31°C° 0,2 mm 1 m/s 752 mmHg 81%
    19:00 +30°C° 0,8 mm 2 m/s 752 mmHg 84%
    20:00 +30°C° 0,8 mm 2 m/s 753 mmHg 86%
    21:00 +29°C° 0,8 mm 2 m/s 754 mmHg 89%
    22:00 +29°C° 1,3 mm 2 m/s 754 mmHg 90%
    23:00 +29°C° 1,3 mm 2 m/s 754 mmHg 90%

    22 Setembro, Sexta-feira

    Tempo Temperatura Precipitação Vento Pressão Humidade
    00:00 +28°C° 1,3 mm 2 m/s 754 mmHg 91%
    01:00 +28°C° 1,8 mm 2 m/s 753 mmHg 91%
    02:00 +28°C° 1,8 mm 2 m/s 753 mmHg 91%
    03:00 +28°C° 1,8 mm 2 m/s 753 mmHg 91%
    04:00 +28°C° 2 mm 2 m/s 753 mmHg 91%
    05:00 +28°C° 2 mm 2 m/s 754 mmHg 92%
    06:00 +28°C° 2 mm 1 m/s 754 mmHg 92%
    07:00 +29°C° 0,9 mm 1 m/s 754 mmHg 88%
    08:00 +30°C° 0,9 mm 1 m/s 755 mmHg 84%
    09:00 +31°C° 0,9 mm 1 m/s 755 mmHg 81%
    10:00 +32°C° 0,7 mm 1 m/s 755 mmHg 76%
    11:00 +33°C° 0,7 mm 1 m/s 754 mmHg 71%
    12:00 +34°C° 0,7 mm 1 m/s 754 mmHg 67%
    13:00 +34°C° 0,1 mm 1 m/s 753 mmHg 66%
    14:00 +34°C° 0,1 mm 1 m/s 752 mmHg 65%
    15:00 +34°C° 0,1 mm 1 m/s 751 mmHg 65%
    16:00 +33°C° 0,2 mm 1 m/s 752 mmHg 69%
    17:00 +32°C° 0,2 mm 1 m/s 752 mmHg 73%
    18:00 +31°C° 0,2 mm 1 m/s 752 mmHg 78%
    19:00 +31°C° 0,7 mm 1 m/s 753 mmHg 80%
    20:00 +30°C° 0,7 mm 1 m/s 753 mmHg 83%
    21:00 +30°C° 0,7 mm 1 m/s 754 mmHg 86%
    22:00 +29°C° 0,6 mm 1 m/s 754 mmHg 87%
    23:00 +29°C° 0,6 mm 2 m/s 754 mmHg 88%

    23 Setembro, Sábado

    Tempo Temperatura Precipitação Vento Pressão Humidade
    00:00 +29°C° 0,6 mm 2 m/s 754 mmHg 89%
    01:00 +29°C° 2,2 mm 1 m/s 753 mmHg 90%
    02:00 +29°C° 2,2 mm 1 m/s 753 mmHg 91%
    03:00 +28°C° 2,2 mm 1 m/s 753 mmHg 91%
    04:00 +28°C° 0,8 mm 1 m/s 753 mmHg 92%
    05:00 +28°C° 0,8 mm 1 m/s 754 mmHg 92%
    06:00 +28°C° 0,8 mm 1 m/s 754 mmHg 93%
    07:00 +29°C° 0,1 mm 1 m/s 755 mmHg 90%
    08:00 +30°C° 0,1 mm 1 m/s 755 mmHg 87%
    09:00 +31°C° 0,1 mm 2 m/s 755 mmHg 84%
    10:00 +32°C° 0,1 mm 1 m/s 755 mmHg 77%
    11:00 +34°C° 0,1 mm 1 m/s 754 mmHg 71%
    12:00 +35°C° 0,1 mm 1 m/s 754 mmHg 64%
    13:00 +35°C° 0,2 mm 1 m/s 753 mmHg 63%
    14:00 +36°C° 0,2 mm 1 m/s 752 mmHg 62%
    15:00 +36°C° 0,2 mm 1 m/s 752 mmHg 61%
    16:00 +34°C° 0,3 mm 1 m/s 752 mmHg 66%
    17:00 +33°C° 0,3 mm 1 m/s 752 mmHg 70%
    18:00 +32°C° 0,3 mm 1 m/s 752 mmHg 75%
    19:00 +32°C° 1,3 mm 1 m/s 753 mmHg 78%
    20:00 +31°C° 1,3 mm 1 m/s 753 mmHg 80%
    21:00 +31°C° 1,3 mm 1 m/s 754 mmHg 83%
    22:00 +30°C° 1 mm 1 m/s 754 mmHg 84%
    23:00 +30°C° 1 mm 1 m/s 754 mmHg 85%

    24 Setembro, Domingo

    Tempo Temperatura Precipitação Vento Pressão Humidade
    00:00 +30°C° 1 mm 1 m/s 754 mmHg 86%
    01:00 +29°C° 1,6 mm 1 m/s 753 mmHg 87%
    02:00 +29°C° 1,6 mm 1 m/s 753 mmHg 89%
    03:00 +29°C° 1,6 mm 1 m/s 753 mmHg 90%
    04:00 +29°C° 1,4 mm 1 m/s 753 mmHg 90%
    05:00 +29°C° 1,4 mm 1 m/s 754 mmHg 90%
    06:00 +29°C° 1,4 mm 1 m/s 754 mmHg 90%
    07:00 +30°C° 0,8 mm 1 m/s 754 mmHg 87%
    08:00 +31°C° 0,8 mm 1 m/s 755 mmHg 84%
    09:00 +32°C° 0,8 mm 1 m/s 755 mmHg 81%
    10:00 +33°C° 0,9 mm 1 m/s 754 mmHg 75%
    11:00 +34°C° 0,9 mm 1 m/s 754 mmHg 70%
    12:00 +35°C° 0,9 mm 1 m/s 753 mmHg 64%
    13:00 +35°C° 0,3 mm 1 m/s 752 mmHg 63%
    14:00 +36°C° 0,3 mm 1 m/s 752 mmHg 62%
    15:00 +36°C° 0,3 mm 1 m/s 751 mmHg 61%
    16:00 +35°C° 0,5 mm 1 m/s 751 mmHg 66%
    17:00 +33°C° 0,5 mm 1 m/s 751 mmHg 70%
    18:00 +30°C° 0,5 mm 0 m/s 751 mmHg 75%
    19:00 +32°C° 1 mm 1 m/s 752 mmHg 78%
    20:00 +31°C° 1 mm 1 m/s 752 mmHg 80%
    21:00 +30°C° 1 mm 1 m/s 753 mmHg 83%
    22:00 +30°C° 1,6 mm 1 m/s 753 mmHg 84%
    23:00 +30°C° 1,6 mm 1 m/s 753 mmHg 84%
    Mostrar mais